sat.trackr.live / text

‹ back to catalog

STARLINK-32629

NORAD 62150 · 2024-224M

PAYLOAD ACTIVE UNKNOWN

§ Identity

Operator
Country
US
Launch date
2024-11-30
Launch site
AFETR
Launch vehicle
Mass (kg)
RCS (m²)

Purposes: comms

External: N2YO · Heavens-Above · Gunter

§ Orbital elements

Epoch: 2026-05-25T04:27:13.878720Z

Period
94.26 min
Inclination
42.9996°
Eccentricity
0.0001217
Mean motion
15.27613084 rev/d
Perigee alt
482.1 km
Apogee alt
483.8 km
Semi-major
6,861.1 km
B*
9.5871e-4
RAAN
85.7006°
Arg perigee
268.2282°
Mean anomaly
91.8430°
Rev number
8,418

§ Raw data

STARLINK-326291 62150U 24224M   26145.18557730  .00026240  00000+0  95871-3 0  99982 62150  42.9996  85.7006 0001217 268.2282  91.8430 15.27613084 84185

JSON: /api/v1/satellites/62150 · /tle

For live sub-satellite position, see the globe view (requires WebGL).

§ Visibility from observer

Set your observer location to see the next 7 days of passes ≥ 10°. The values pass through the URL so the page stays shareable.

No JS? Fill the form by hand. The geolocation button needs JavaScript.